Weather Roundup
Issued by NWS

Home | Current Version | Previous Version | Text Only | Print | Product List | Glossary On
Versions: 1 2 3 4 5 6 7 8 9 10 11 12 13 14 15 16 17 18 19 20 21 22 23 24 25 26 27 28 29 30 31 32 33 34 35 36 37 38 39 40 41 42 43 44 45 46 47 48 49 50
414
NZUS93 KARX 221159
HRRWXR

CURRENT HOURLY OBSERVATIONS ACROSS
MUCH OF THE UPPER MISSISSIPPI VALLEY
NATIONAL WEATHER SERVICE LA CROSSE WI
600 AM CST SUN JAN 22 2017


...SOUTHEAST MINNESOTA...


CITY           SKY/WX    TMP DP  RH WIND       PRES   REMARKS
ROCHESTER      FOG       32  32 100 W5        29.59R VSB 1/4 WCI  27
ROCHESTER/MAYO CLOUDY    34  35 100 W5        29.60R VSB 1/4 WCI  30
WINONA         CLOUDY    34  34 100 CALM      29.61R FOG
AUSTIN         CLOUDY    34  32  93 CALM      29.59R FOG
ALBERT LEA     FOG       34  34 100 CALM      29.60R VSB 1/4
DODGE CENTER   FOG       32  32 100 CALM      29.60R VSB<1/4
PRESTON        CLOUDY    32  32  99 W5        29.60R FOG     WCI  27
OWATONNA       FOG       34  32  93 CALM      29.61R VSB 1/2
FARIBAULT      NOT AVBL
$$

...ELSEWHERE IN MINNESOTA...


CITY           SKY/WX    TMP DP  RH WIND       PRES   REMARKS
MINNEAPOLIS    CLOUDY    35  33  92 NW8       29.63R WCI  29
INTNL FALLS    FOG       34  32  92 N3        29.64R VSB 1/2
DULUTH         DRIZZLE   34  34 100 N6        29.59S FOG     WCI  29
RED WING       FOG       36  34  93 W3        29.60S VSB 1/4
REDWOOD FALLS  FOG       34  33  96 NW6       29.64R VSB 1/2 WCI  29
MANKATO        FOG       34  33  96 NW8       29.62S VSB 1/2 WCI  27
WORTHINGTON    CLOUDY    33  32  96 NW10      29.64R FOG     WCI  25
FAIRMONT       FOG       34  33  96 NW8       29.63R VSB 1/2 WCI  27
$$

...SOUTHWEST WISCONSIN...


CITY           SKY/WX    TMP DP  RH WIND       PRES   REMARKS
LA CROSSE      FOG       38  35  89 CALM      29.60R VSB 1
PRAIRIE DU CHI FOG       33  33  97 CALM      29.59S VSB 1
BOSCOBEL       CLOUDY    37  35  92 CALM      29.60R FOG
LONE ROCK      CLOUDY    35  34  96 CALM      29.59R FOG
PLATTEVILLE    CLOUDY    32  32 100 CALM      29.58S VSB 1/4
FORT MC COY    FOG       35  35 100 CALM      29.60R VSB 1/2
MAUSTON-NEW LI FOG       35  35 100 CALM      29.57R VSB 3/4
VIROQUA        CLOUDY    35  35 100 W5        29.57S WCI  31
WIS DELLS      FOG       36  36  99 CALM      29.57S VSB<1/4
$$

...ELSEWHERE IN WISCONSIN...


CITY           SKY/WX    TMP DP  RH WIND       PRES   REMARKS
MILWAUKEE      CLOUDY    41  39  93 CALM      29.59R FOG
MADISON        CLOUDY    37  37 100 CALM      29.60R FOG
GREEN BAY      FOG       37  37 100 CALM      29.57R VSB 1/4
EAU CLAIRE     FOG       33  33 100 SW3       29.58R VSB 3/4
BLACK RVR FLS  FOG       35  35 100 CALM      29.58R VSB 1
MEDFORD        FOG       33  32  99 CALM      29.54S VSB 1/2
WAUSAU         FOG       34  34 100 CALM      29.55R VSB 3/4
WIS RAPIDS     FOG       37  37 100 W5        29.58R VSB 3/4 WCI  33
MARSHFIELD     FOG       34  34 100 NW3       29.55R VSB 1/4
RICE LAKE      CLOUDY    34  34 100 CALM      29.59S
$$

...NORTHEAST IOWA...


CITY           SKY/WX    TMP DP  RH WIND       PRES   REMARKS
WATERLOO       CLOUDY    33  29  85 NW5       29.61R WCI  29
DUBUQUE        MOCLDY    27  27 100 CALM      29.59R FOG
DECORAH        FOG       32  32 100 NW5       29.58S VSB 1/4 WCI  27
MASON CITY     CLOUDY    32  32 100 NW8       29.62R FOG     WCI  25
CHARLES CITY   CLOUDY    32  32 100 N6        29.60R WCI  26
OELWEIN        CLOUDY    32  32 100 NW7       29.60R FOG     WCI  26
$$

...ELSEWHERE IN IOWA...


CITY           SKY/WX    TMP DP  RH WIND       PRES   REMARKS
DES MOINES     CLOUDY    32  31  96 N6        29.64R WCI  26
IOWA CITY      CLOUDY    31  30  96 CALM      29.62R FOG
FORT DODGE     CLOUDY    34  28  80 W5        29.63R WCI  30
MARSHALLTOWN   CLOUDY    32  31  96 NW6       29.62R WCI  26
CEDAR RAPIDS   FOG       32  32 100 NW6       29.60R VSB 1/4 WCI  26
$$

...NORTHERN ILLINOIS...


CITY           SKY/WX    TMP DP  RH WIND       PRES   REMARKS
CHICAGO-OHARE  MOCLDY    41  38  89 N5        29.59R
CHICAGO-MIDWAY CLOUDY    42  40  92 SE5       29.60R FOG
MOLINE         FOG       31  29  92 W3        29.59R VSB 1/4
ROCKFORD       FOG       33  32  96 NW5       29.61R VSB 1/4 WCI  29
PEORIA         FOG       41  41 100 NE3       29.59R VSB 1/2
$$

NOTE: "FAIR" INDICATES FEW OR NO CLOUDS BELOW 12,000 FEET WITH NO
SIGNIFICANT WEATHER AND/OR OBSTRUCTIONS TO VISIBILITY. WIND
SPEEDS ARE IN MILES-PER-HOUR.




USA.gov is the U.S. government's official web portal to all federal, state and local government web resources and services.